User: anonymous   Login
Location: Unspecified
(0.0000°N, 0.0000°E)
Time: 18:29:09
(UTC+00:00)
Language:

COSMOS 2481 - Orbit

View from above orbital plane
View from above orbital plane
View from above satellite
View from above satellite

Ground track
Ground track

The orbit data is extracted from the following two-line orbital elements,

1 38733U 12041A   21026.26738225  .00000020  00000-0  73206-4 0  9992
2 38733  82.4723 222.0587 0019152  42.7975 317.4606 12.42383154385466
Epoch (UTC): 26 January 2021 06:25:01
Eccentricity: 0.0019152
inclination: 82.4723°
perigee height: 1481 km
apogee height: 1511 km
right ascension of ascending node: 222.0587°
argument of perigee: 42.7975°
revolutions per day: 12.42383154
mean anomaly at epoch: 317.4606°
orbit number at epoch: 38546

The dashed part of the orbit path shows where the satellite is in the earth's shadow,  

DLR